User: anonymous   Login
Location: Iesi
(43.5167°N, 13.2333°E)
Time: 02:39:44
(UTC+00:00)
Language:

H-2A R/B - Orbit

View from above orbital plane
View from above orbital plane
View from above satellite
View from above satellite

Ground track
Ground track

The orbit data is extracted from the following two-line orbital elements,

1 27601U 02056E   20302.57713441 +.00000104 +00000-0 +52645-4 0  9999
2 27601 098.2142 331.4223 0071123 240.6300 231.6204 14.31977426933749
Epoch (UTC): 28 October 2020 13:51:04
Eccentricity: 0.0071123
inclination: 98.2142°
perigee height: 734 km
apogee height: 836 km
right ascension of ascending node: 331.4223°
argument of perigee: 240.6300°
revolutions per day: 14.31977426
mean anomaly at epoch: 231.6204°
orbit number at epoch: 93374

The dashed part of the orbit path shows where the satellite is in the earth's shadow,  

DLR